Time,TemperatureF,DewpointF,PressureIn,WindDirection,WindDirectionDegrees,WindSpeedMPH,WindSpeedGustMPH,Humidity,HourlyPrecipIn,Conditions,Clouds,dailyrainin,SoftwareType,DateUTC
2013-05-06 00:00:00,55.3,37.9,30.07,NNE,23,0.0,0.2,52,0.00,,,0.00,WUHU216HW,2013-05-06 04:00:00,
2013-05-06 00:01:00,55.3,37.9,30.07,ESE,113,0.0,0.2,52,0.00,,,0.00,WUHU216HW,2013-05-06 04:01:00,
2013-05-06 00:06:00,55.6,38.2,30.06,ESE,113,0.0,0.4,52,0.00,,,0.00,WUHU216HW,2013-05-06 04:06:00,
2013-05-06 00:11:00,55.8,38.3,30.06,SE,135,0.0,0.4,52,0.00,,,0.00,WUHU216HW,2013-05-06 04:11:00,
2013-05-06 00:16:00,56.0,38.1,30.07,ESE,113,0.2,0.4,51,0.00,,,0.00,WUHU216HW,2013-05-06 04:16:00,
2013-05-06 00:21:00,56.0,38.1,30.06,South,180,0.2,0.4,51,0.00,,,0.00,WUHU216HW,2013-05-06 04:21:00,
2013-05-06 00:26:00,56.2,38.3,30.06,WSW,248,0.0,0.4,51,0.00,,,0.00,WUHU216HW,2013-05-06 04:26:00,
2013-05-06 00:31:00,56.2,37.8,30.06,SE,135,0.2,0.4,50,0.00,,,0.00,WUHU216HW,2013-05-06 04:31:00,
2013-05-06 00:36:00,56.2,37.8,30.06,SE,135,0.0,0.4,50,0.00,,,0.00,WUHU216HW,2013-05-06 04:36:00,
2013-05-06 00:41:00,56.2,37.8,30.06,West,270,0.0,0.4,50,0.00,,,0.00,WUHU216HW,2013-05-06 04:41:00,
2013-05-06 00:46:00,56.2,37.8,30.06,WNW,293,0.4,0.4,50,0.00,,,0.00,WUHU216HW,2013-05-06 04:46:00,
2013-05-06 00:51:00,56.2,37.8,30.06,SSE,158,0.2,0.4,50,0.00,,,0.00,WUHU216HW,2013-05-06 04:51:00,
2013-05-06 00:56:00,56.2,37.8,30.06,ESE,113,0.9,0.9,50,0.00,,,0.00,WUHU216HW,2013-05-06 04:56:00,
2013-05-06 01:01:00,56.2,37.8,30.06,WSW,248,0.2,0.9,50,0.00,,,0.00,WUHU216HW,2013-05-06 05:01:00,
2013-05-06 01:06:00,56.2,37.8,30.06,WSW,248,0.2,0.2,50,0.00,,,0.00,WUHU216HW,2013-05-06 05:06:00,
2013-05-06 01:11:00,56.2,37.8,30.06,NW,315,0.4,0.4,50,0.00,,,0.00,WUHU216HW,2013-05-06 05:11:00,
2013-05-06 01:16:00,56.0,37.6,30.06,South,180,0.0,0.4,50,0.00,,,0.00,WUHU216HW,2013-05-06 05:16:00,
2013-05-06 01:21:00,56.0,37.6,30.06,SSW,203,0.0,0.2,50,0.00,,,0.00,WUHU216HW,2013-05-06 05:21:00,
2013-05-06 01:26:00,55.8,37.4,30.06,WSW,248,0.4,0.4,50,0.00,,,0.00,WUHU216HW,2013-05-06 05:26:00,
2013-05-06 01:31:00,55.8,37.4,30.06,NNE,23,0.4,0.9,50,0.00,,,0.00,WUHU216HW,2013-05-06 05:31:00,
2013-05-06 01:36:00,55.6,37.3,30.06,NW,315,0.0,0.9,50,0.00,,,0.00,WUHU216HW,2013-05-06 05:36:00,
2013-05-06 01:41:00,55.6,37.3,30.06,SSW,203,0.0,0.7,50,0.00,,,0.00,WUHU216HW,2013-05-06 05:41:00,
2013-05-06 01:46:00,55.4,37.1,30.06,SSE,158,0.0,0.2,50,0.00,,,0.00,WUHU216HW,2013-05-06 05:46:00,
2013-05-06 01:51:00,55.4,37.1,30.06,West,270,0.0,0.2,50,0.00,,,0.00,WUHU216HW,2013-05-06 05:51:00,
2013-05-06 01:56:00,55.3,36.9,30.06,NW,315,0.4,0.4,50,0.00,,,0.00,WUHU216HW,2013-05-06 05:56:00,
2013-05-06 02:01:00,55.3,36.9,30.05,NW,315,0.4,0.4,50,0.00,,,0.00,WUHU216HW,2013-05-06 06:01:00,
2013-05-06 02:06:00,55.1,36.7,30.05,NW,315,0.0,0.4,50,0.00,,,0.00,WUHU216HW,2013-05-06 06:06:00,
2013-05-06 02:11:00,55.1,36.7,30.05,NNE,23,0.0,0.4,50,0.00,,,0.00,WUHU216HW,2013-05-06 06:11:00,
2013-05-06 02:16:00,55.1,36.7,30.05,NNE,23,0.0,0.4,50,0.00,,,0.00,WUHU216HW,2013-05-06 06:16:00,
2013-05-06 02:21:00,54.9,36.6,30.05,East,90,0.0,0.2,50,0.00,,,0.00,WUHU216HW,2013-05-06 06:21:00,
2013-05-06 02:26:00,54.9,36.6,30.05,ESE,113,0.0,0.0,50,0.00,,,0.00,WUHU216HW,2013-05-06 06:26:00,
2013-05-06 02:31:00,54.7,36.5,30.05,ESE,113,0.0,0.0,50,0.00,,,0.00,WUHU216HW,2013-05-06 06:31:00,
2013-05-06 02:36:00,54.5,36.3,30.05,West,270,0.0,0.4,50,0.00,,,0.00,WUHU216HW,2013-05-06 06:36:00,
2013-05-06 02:41:00,54.4,36.5,30.05,West,270,0.0,0.4,51,0.00,,,0.00,WUHU216HW,2013-05-06 06:41:00,
2013-05-06 02:46:00,54.4,36.5,30.05,West,270,0.0,0.4,51,0.00,,,0.00,WUHU216HW,2013-05-06 06:46:00,
2013-05-06 02:51:00,54.2,36.5,30.04,NNW,338,0.0,0.4,51,0.00,,,0.00,WUHU216HW,2013-05-06 06:51:00,
2013-05-06 02:56:00,54.0,36.3,30.04,NNW,338,0.0,0.2,51,0.00,,,0.00,WUHU216HW,2013-05-06 06:56:00,
2013-05-06 03:01:00,53.8,36.5,30.04,ENE,68,0.0,0.0,52,0.00,,,0.00,WUHU216HW,2013-05-06 07:01:00,
2013-05-06 03:06:00,53.6,36.4,30.05,ENE,68,0.0,0.0,52,0.00,,,0.00,WUHU216HW,2013-05-06 07:06:00,
2013-05-06 03:11:00,53.6,36.4,30.04,ESE,113,0.0,0.4,52,0.00,,,0.00,WUHU216HW,2013-05-06 07:11:00,
2013-05-06 03:16:00,53.6,36.4,30.04,ESE,113,0.0,0.4,52,0.00,,,0.00,WUHU216HW,2013-05-06 07:16:00,
2013-05-06 03:21:00,53.5,36.3,30.04,SSE,158,0.0,0.0,52,0.00,,,0.00,WUHU216HW,2013-05-06 07:21:00,
2013-05-06 03:26:00,53.3,36.1,30.04,WSW,248,0.0,0.0,52,0.00,,,0.00,WUHU216HW,2013-05-06 07:26:00,
2013-05-06 03:31:00,53.1,35.9,30.04,WSW,248,0.0,0.0,52,0.00,,,0.00,WUHU216HW,2013-05-06 07:31:00,
2013-05-06 03:36:00,52.9,36.2,30.04,South,180,0.0,0.0,53,0.00,,,0.00,WUHU216HW,2013-05-06 07:36:00,
2013-05-06 03:41:00,52.9,36.2,30.04,WSW,248,0.0,0.2,53,0.00,,,0.00,WUHU216HW,2013-05-06 07:41:00,
2013-05-06 03:46:00,52.7,36.0,30.04,West,270,0.4,0.4,53,0.00,,,0.00,WUHU216HW,2013-05-06 07:46:00,
2013-05-06 03:51:00,52.6,35.8,30.04,West,270,0.0,0.4,53,0.00,,,0.00,WUHU216HW,2013-05-06 07:51:00,
2013-05-06 03:56:00,52.6,35.8,30.04,West,270,0.0,0.0,53,0.00,,,0.00,WUHU216HW,2013-05-06 07:56:00,
2013-05-06 04:01:00,52.2,36.0,30.04,West,270,0.0,0.0,54,0.00,,,0.00,WUHU216HW,2013-05-06 08:01:00,
2013-05-06 04:06:00,52.2,36.0,30.04,West,270,0.0,0.0,54,0.00,,,0.00,WUHU216HW,2013-05-06 08:06:00,
2013-05-06 04:11:00,52.0,35.8,30.04,West,270,0.0,0.0,54,0.00,,,0.00,WUHU216HW,2013-05-06 08:11:00,
2013-05-06 04:16:00,51.8,35.6,30.04,West,270,0.0,0.0,54,0.00,,,0.00,WUHU216HW,2013-05-06 08:16:00,
2013-05-06 04:21:00,51.7,35.9,30.04,West,270,0.0,0.0,55,0.00,,,0.00,WUHU216HW,2013-05-06 08:21:00,
2013-05-06 04:26:00,51.7,35.9,30.04,West,270,0.0,0.0,55,0.00,,,0.00,WUHU216HW,2013-05-06 08:26:00,
2013-05-06 04:31:00,51.5,35.7,30.04,WNW,293,0.0,0.0,55,0.00,,,0.00,WUHU216HW,2013-05-06 08:31:00,
2013-05-06 04:36:00,51.5,35.7,30.04,WNW,293,0.0,0.0,55,0.00,,,0.00,WUHU216HW,2013-05-06 08:36:00,
2013-05-06 04:41:00,51.3,35.7,30.04,WNW,293,0.0,0.2,55,0.00,,,0.00,WUHU216HW,2013-05-06 08:41:00,
2013-05-06 04:46:00,51.1,35.9,30.04,NNW,338,0.0,0.4,56,0.00,,,0.00,WUHU216HW,2013-05-06 08:46:00,
2013-05-06 04:51:00,51.1,35.9,30.04,NNW,338,0.0,0.4,56,0.00,,,0.00,WUHU216HW,2013-05-06 08:51:00,
2013-05-06 04:56:00,51.1,35.9,30.04,NNW,338,0.0,0.0,56,0.00,,,0.00,WUHU216HW,2013-05-06 08:56:00,
2013-05-06 05:01:00,50.9,35.7,30.04,NNW,338,0.0,0.4,56,0.00,,,0.00,WUHU216HW,2013-05-06 09:01:00,
2013-05-06 05:06:00,50.8,35.6,30.04,NNW,338,0.2,0.4,56,0.00,,,0.00,WUHU216HW,2013-05-06 09:06:00,
2013-05-06 05:11:00,50.8,36.0,30.04,WNW,293,0.0,0.4,57,0.00,,,0.00,WUHU216HW,2013-05-06 09:11:00,
2013-05-06 05:16:00,50.6,35.8,30.04,WNW,293,0.0,0.4,57,0.00,,,0.00,WUHU216HW,2013-05-06 09:16:00,
2013-05-06 05:21:00,50.6,35.8,30.04,WNW,293,0.0,0.0,57,0.00,,,0.00,WUHU216HW,2013-05-06 09:21:00,
2013-05-06 05:26:00,50.4,35.7,30.04,NW,315,0.0,0.0,57,0.00,,,0.00,WUHU216HW,2013-05-06 09:26:00,
2013-05-06 05:31:00,50.4,35.7,30.04,NW,315,0.0,0.0,57,0.00,,,0.00,WUHU216HW,2013-05-06 09:31:00,
2013-05-06 05:36:00,50.4,35.7,30.04,WNW,293,0.0,0.0,57,0.00,,,0.00,WUHU216HW,2013-05-06 09:36:00,
2013-05-06 05:41:00,50.2,36.0,30.04,WNW,293,0.2,0.2,58,0.00,,,0.00,WUHU216HW,2013-05-06 09:41:00,
2013-05-06 05:46:00,50.2,36.0,30.04,NNE,23,0.0,0.2,58,0.00,,,0.00,WUHU216HW,2013-05-06 09:46:00,
2013-05-06 05:51:00,50.2,36.0,30.04,NW,315,0.0,0.2,58,0.00,,,0.00,WUHU216HW,2013-05-06 09:51:00,
2013-05-06 05:56:00,50.0,36.3,30.04,SE,135,0.0,0.7,59,0.00,,,0.00,WUHU216HW,2013-05-06 09:56:00,
2013-05-06 06:01:00,50.0,36.3,30.04,SE,135,0.0,0.7,59,0.00,,,0.00,WUHU216HW,2013-05-06 10:01:00,
2013-05-06 06:06:00,50.0,36.3,30.04,South,180,0.0,0.0,59,0.00,,,0.00,WUHU216HW,2013-05-06 10:06:00,
2013-05-06 06:11:00,50.0,36.3,30.04,WSW,248,0.0,0.0,59,0.00,,,0.00,WUHU216HW,2013-05-06 10:11:00,
2013-05-06 06:16:00,49.9,36.1,30.04,WNW,293,0.0,0.0,59,0.00,,,0.00,WUHU216HW,2013-05-06 10:16:00,
2013-05-06 06:21:00,49.9,36.1,30.05,NNW,338,0.0,0.0,59,0.00,,,0.00,WUHU216HW,2013-05-06 10:21:00,
2013-05-06 06:26:00,49.9,36.5,30.05,ESE,113,0.4,0.4,60,0.00,,,0.00,WUHU216HW,2013-05-06 10:26:00,
2013-05-06 06:31:00,49.7,36.4,30.05,West,270,0.2,0.4,60,0.00,,,0.00,WUHU216HW,2013-05-06 10:31:00,
2013-05-06 06:36:00,49.7,36.4,30.05,NNW,338,0.2,0.2,60,0.00,,,0.00,WUHU216HW,2013-05-06 10:36:00,
2013-05-06 06:41:00,49.7,36.4,30.05,ESE,113,0.0,0.2,60,0.00,,,0.00,WUHU216HW,2013-05-06 10:41:00,
2013-05-06 06:46:00,49.7,36.8,30.05,East,90,0.2,0.4,61,0.00,,,0.00,WUHU216HW,2013-05-06 10:46:00,
2013-05-06 06:51:00,49.7,36.8,30.05,East,90,0.2,0.4,61,0.00,,,0.00,WUHU216HW,2013-05-06 10:51:00,
2013-05-06 06:56:00,49.7,36.8,30.06,SE,135,0.2,1.1,61,0.00,,,0.00,WUHU216HW,2013-05-06 10:56:00,
2013-05-06 07:01:00,49.7,36.8,30.06,East,90,0.0,1.1,61,0.00,,,0.00,WUHU216HW,2013-05-06 11:01:00,
2013-05-06 07:06:00,49.9,37.0,30.06,SE,135,0.9,0.9,61,0.00,,,0.00,WUHU216HW,2013-05-06 11:06:00,
2013-05-06 07:11:00,49.9,37.4,30.06,East,90,0.0,0.9,62,0.00,,,0.00,WUHU216HW,2013-05-06 11:11:00,
2013-05-06 07:16:00,50.0,37.5,30.06,SE,135,0.2,0.9,62,0.00,,,0.00,WUHU216HW,2013-05-06 11:16:00,
2013-05-06 07:21:00,50.4,37.8,30.06,ESE,113,0.0,1.1,62,0.00,,,0.00,WUHU216HW,2013-05-06 11:21:00,
2013-05-06 07:26:00,50.4,37.8,30.06,East,90,0.4,1.1,62,0.00,,,0.00,WUHU216HW,2013-05-06 11:26:00,
2013-05-06 07:31:00,50.8,38.2,30.06,East,90,1.1,1.8,62,0.00,,,0.00,WUHU216HW,2013-05-06 11:31:00,
2013-05-06 07:36:00,50.9,38.7,30.06,ESE,113,0.4,1.8,63,0.00,,,0.00,WUHU216HW,2013-05-06 11:36:00,
2013-05-06 07:41:00,51.1,39.3,30.07,ENE,68,0.9,1.3,64,0.00,,,0.00,WUHU216HW,2013-05-06 11:41:00,
2013-05-06 07:46:00,51.3,39.5,30.06,ESE,113,0.7,2.2,64,0.00,,,0.00,WUHU216HW,2013-05-06 11:46:00,
2013-05-06 07:51:00,51.7,39.9,30.07,ESE,113,2.2,2.2,64,0.00,,,0.00,WUHU216HW,2013-05-06 11:51:00,
2013-05-06 07:56:00,52.0,39.8,30.07,SSW,203,0.4,2.2,63,0.00,,,0.00,WUHU216HW,2013-05-06 11:56:00,
2013-05-06 08:01:00,52.2,40.0,30.08,ESE,113,1.1,2.2,63,0.00,,,0.00,WUHU216HW,2013-05-06 12:01:00,
2013-05-06 08:06:00,52.6,39.9,30.08,ESE,113,0.9,1.3,62,0.00,,,0.00,WUHU216HW,2013-05-06 12:06:00,
2013-05-06 08:11:00,52.7,40.1,30.08,East,90,0.7,2.2,62,0.00,,,0.00,WUHU216HW,2013-05-06 12:11:00,
2013-05-06 08:16:00,52.9,39.8,30.07,ESE,113,1.1,2.2,61,0.00,,,0.00,WUHU216HW,2013-05-06 12:16:00,
2013-05-06 08:21:00,53.3,40.1,30.07,SE,135,3.1,3.1,61,0.00,,,0.00,WUHU216HW,2013-05-06 12:21:00,
2013-05-06 08:26:00,53.6,40.1,30.07,East,90,2.0,3.1,60,0.00,,,0.00,WUHU216HW,2013-05-06 12:26:00,
2013-05-06 08:31:00,53.8,40.3,30.07,ESE,113,0.7,2.0,60,0.00,,,0.00,WUHU216HW,2013-05-06 12:31:00,
2013-05-06 08:36:00,54.0,40.0,30.07,ENE,68,1.6,1.6,59,0.00,,,0.00,WUHU216HW,2013-05-06 12:36:00,
2013-05-06 08:41:00,54.5,40.5,30.08,East,90,1.3,2.5,59,0.00,,,0.00,WUHU216HW,2013-05-06 12:41:00,
2013-05-06 08:46:00,54.9,40.8,30.08,SE,135,0.9,2.5,59,0.00,,,0.00,WUHU216HW,2013-05-06 12:46:00,
2013-05-06 08:51:00,55.3,40.7,30.08,ENE,68,3.4,3.4,58,0.00,,,0.00,WUHU216HW,2013-05-06 12:51:00,
2013-05-06 08:56:00,55.6,40.1,30.08,SE,135,1.1,3.4,56,0.00,,,0.00,WUHU216HW,2013-05-06 12:56:00,
2013-05-06 09:01:00,56.2,40.1,30.08,ENE,68,2.9,2.9,55,0.00,,,0.00,WUHU216HW,2013-05-06 13:01:00,
2013-05-06 09:06:00,56.5,40.5,30.08,East,90,1.1,2.9,55,0.00,,,0.00,WUHU216HW,2013-05-06 13:06:00,
2013-05-06 09:11:00,57.1,40.6,30.08,East,90,0.4,2.9,54,0.00,,,0.00,WUHU216HW,2013-05-06 13:11:00,
2013-05-06 09:16:00,57.2,40.8,30.09,ENE,68,1.3,2.9,54,0.00,,,0.00,WUHU216HW,2013-05-06 13:16:00,
2013-05-06 09:21:00,57.6,41.0,30.09,ESE,113,1.1,2.5,54,0.00,,,0.00,WUHU216HW,2013-05-06 13:21:00,
2013-05-06 09:26:00,58.1,41.6,30.09,ESE,113,1.3,2.5,54,0.00,,,0.00,WUHU216HW,2013-05-06 13:26:00,
2013-05-06 09:31:00,58.5,41.4,30.09,East,90,2.5,3.4,53,0.00,,,0.00,WUHU216HW,2013-05-06 13:31:00,
2013-05-06 09:36:00,58.9,41.8,30.08,NE,45,3.1,3.4,53,0.00,,,0.00,WUHU216HW,2013-05-06 13:36:00,
2013-05-06 09:41:00,59.2,42.0,30.08,ENE,68,1.1,4.0,53,0.00,,,0.00,WUHU216HW,2013-05-06 13:41:00,
2013-05-06 09:46:00,59.6,42.0,30.08,ESE,113,1.8,4.0,52,0.00,,,0.00,WUHU216HW,2013-05-06 13:46:00,
2013-05-06 09:51:00,59.8,41.6,30.08,ENE,68,2.9,3.6,51,0.00,,,0.00,WUHU216HW,2013-05-06 13:51:00,
2013-05-06 09:56:00,60.1,42.9,30.08,East,90,1.6,3.6,53,0.00,,,0.00,WUHU216HW,2013-05-06 13:56:00,
2013-05-06 10:01:00,60.5,42.8,30.08,ENE,68,1.1,2.0,52,0.00,,,0.00,WUHU216HW,2013-05-06 14:01:00,
2013-05-06 10:06:00,60.8,43.1,30.08,ESE,113,1.1,2.0,52,0.00,,,0.00,WUHU216HW,2013-05-06 14:06:00,
2013-05-06 10:11:00,61.4,43.1,30.08,NE,45,2.7,5.4,51,0.00,,,0.00,WUHU216HW,2013-05-06 14:11:00,
2013-05-06 10:16:00,61.6,42.8,30.09,ENE,68,2.5,5.4,50,0.00,,,0.00,WUHU216HW,2013-05-06 14:16:00,
2013-05-06 10:21:00,61.9,41.9,30.08,East,90,1.6,3.1,48,0.00,,,0.00,WUHU216HW,2013-05-06 14:21:00,
2013-05-06 10:26:00,62.1,42.1,30.09,ESE,113,1.8,3.4,48,0.00,,,0.00,WUHU216HW,2013-05-06 14:26:00,
2013-05-06 10:31:00,62.6,43.2,30.09,ESE,113,1.8,3.4,49,0.00,,,0.00,WUHU216HW,2013-05-06 14:31:00,
2013-05-06 10:36:00,63.0,43.5,30.09,ENE,68,3.6,3.6,49,0.00,,,0.00,WUHU216HW,2013-05-06 14:36:00,
2013-05-06 10:41:00,63.4,43.2,30.09,East,90,1.3,3.6,48,0.00,,,0.00,WUHU216HW,2013-05-06 14:41:00,
2013-05-06 10:46:00,63.5,42.9,30.09,East,90,2.0,3.6,47,0.00,,,0.00,WUHU216HW,2013-05-06 14:46:00,
2013-05-06 10:51:00,63.9,42.6,30.09,ENE,68,2.5,3.1,46,0.00,,,0.00,WUHU216HW,2013-05-06 14:51:00,
2013-05-06 10:56:00,64.3,43.5,30.09,ESE,113,3.4,3.4,47,0.00,,,0.00,WUHU216HW,2013-05-06 14:56:00,
2013-05-06 11:01:00,64.4,43.7,30.09,ENE,68,1.1,3.4,47,0.00,,,0.00,WUHU216HW,2013-05-06 15:01:00,
2013-05-06 11:06:00,64.8,44.0,30.09,East,90,2.7,3.4,47,0.00,,,0.00,WUHU216HW,2013-05-06 15:06:00,
2013-05-06 11:11:00,65.0,43.6,30.09,East,90,3.1,3.4,46,0.00,,,0.00,WUHU216HW,2013-05-06 15:11:00,
2013-05-06 11:16:00,65.2,43.7,30.08,ESE,113,1.1,3.4,46,0.00,,,0.00,WUHU216HW,2013-05-06 15:16:00,
2013-05-06 11:21:00,65.2,43.7,30.09,ENE,68,1.1,3.6,46,0.00,,,0.00,WUHU216HW,2013-05-06 15:21:00,
2013-05-06 11:26:00,65.5,44.6,30.09,ENE,68,2.0,3.6,47,0.00,,,0.00,WUHU216HW,2013-05-06 15:26:00,
2013-05-06 11:31:00,65.9,44.5,30.09,ENE,68,1.3,3.4,46,0.00,,,0.00,WUHU216HW,2013-05-06 15:31:00,
2013-05-06 11:36:00,66.1,44.0,30.09,ENE,68,2.5,3.4,45,0.00,,,0.00,WUHU216HW,2013-05-06 15:36:00,
2013-05-06 11:41:00,66.6,44.6,30.09,ENE,68,2.0,4.5,45,0.00,,,0.00,WUHU216HW,2013-05-06 15:41:00,
2013-05-06 11:46:00,66.6,44.6,30.09,East,90,2.0,4.5,45,0.00,,,0.00,WUHU216HW,2013-05-06 15:46:00,
2013-05-06 11:51:00,67.1,45.0,30.08,NE,45,4.0,4.0,45,0.00,,,0.00,WUHU216HW,2013-05-06 15:51:00,
2013-05-06 11:56:00,67.5,45.4,30.09,NNE,23,3.8,4.7,45,0.00,,,0.00,WUHU216HW,2013-05-06 15:56:00,
2013-05-06 12:01:00,67.7,44.9,30.09,ESE,113,3.1,4.7,44,0.00,,,0.00,WUHU216HW,2013-05-06 16:01:00,
2013-05-06 12:06:00,67.5,44.7,30.08,East,90,1.1,3.4,44,0.00,,,0.00,WUHU216HW,2013-05-06 16:06:00,
2013-05-06 12:11:00,67.7,44.3,30.09,ESE,113,1.6,4.5,43,0.00,,,0.00,WUHU216HW,2013-05-06 16:11:00,
2013-05-06 12:16:00,68.0,45.2,30.08,ESE,113,1.8,4.5,44,0.00,,,0.00,WUHU216HW,2013-05-06 16:16:00,
2013-05-06 12:21:00,68.4,45.5,30.08,SSE,158,0.9,4.0,44,0.00,,,0.00,WUHU216HW,2013-05-06 16:21:00,
2013-05-06 12:26:00,68.9,47.3,30.08,East,90,2.2,4.0,46,0.00,,,0.00,WUHU216HW,2013-05-06 16:26:00,
2013-05-06 12:31:00,69.1,45.6,30.08,ESE,113,3.6,3.6,43,0.00,,,0.00,WUHU216HW,2013-05-06 16:31:00,
2013-05-06 12:36:00,69.1,47.3,30.08,East,90,2.9,3.6,46,0.00,,,0.00,WUHU216HW,2013-05-06 16:36:00,
2013-05-06 12:41:00,69.5,47.1,30.07,ESE,113,1.6,3.4,45,0.00,,,0.00,WUHU216HW,2013-05-06 16:41:00,
2013-05-06 12:46:00,70.2,46.5,30.07,ENE,68,3.8,3.8,43,0.00,,,0.00,WUHU216HW,2013-05-06 16:46:00,
2013-05-06 12:51:00,70.7,47.1,30.07,East,90,2.9,3.8,43,0.00,,,0.00,WUHU216HW,2013-05-06 16:51:00,
2013-05-06 12:56:00,70.9,47.8,30.07,ESE,113,2.2,4.0,44,0.00,,,0.00,WUHU216HW,2013-05-06 16:56:00,
2013-05-06 13:01:00,70.9,47.3,30.07,SSE,158,2.2,4.0,43,0.00,,,0.00,WUHU216HW,2013-05-06 17:01:00,
2013-05-06 13:06:00,70.9,47.8,30.07,East,90,2.2,4.0,44,0.00,,,0.00,WUHU216HW,2013-05-06 17:06:00,
2013-05-06 13:11:00,71.3,48.7,30.07,East,90,3.6,4.7,45,0.00,,,0.00,WUHU216HW,2013-05-06 17:11:00,
2013-05-06 13:16:00,71.6,47.9,30.07,East,90,2.5,4.7,43,0.00,,,0.00,WUHU216HW,2013-05-06 17:16:00,
2013-05-06 13:21:00,72.0,48.8,30.06,SW,225,1.1,4.0,44,0.00,,,0.00,WUHU216HW,2013-05-06 17:21:00,
2013-05-06 13:26:00,72.2,47.8,30.06,ENE,68,2.5,2.7,42,0.00,,,0.00,WUHU216HW,2013-05-06 17:26:00,
2013-05-06 13:31:00,72.7,48.9,30.06,East,90,2.9,4.5,43,0.00,,,0.00,WUHU216HW,2013-05-06 17:31:00,
2013-05-06 13:36:00,73.1,49.8,30.06,ENE,68,1.8,4.5,44,0.00,,,0.00,WUHU216HW,2013-05-06 17:36:00,
2013-05-06 13:41:00,73.1,49.1,30.06,SE,135,2.5,4.0,43,0.00,,,0.00,WUHU216HW,2013-05-06 17:41:00,
2013-05-06 13:46:00,73.6,50.9,30.06,ENE,68,2.0,2.9,45,0.00,,,0.00,WUHU216HW,2013-05-06 17:46:00,
2013-05-06 13:50:00,74.0,50.0,30.06,SSE,158,0.9,3.8,43,0.00,,,0.00,WUHU216HW,2013-05-06 17:50:00,
2013-05-06 13:55:00,74.2,49.6,30.05,SE,135,3.1,3.8,42,0.00,,,0.00,WUHU216HW,2013-05-06 17:55:00,
2013-05-06 14:00:00,74.2,49.6,30.06,East,90,3.1,3.4,42,0.00,,,0.00,WUHU216HW,2013-05-06 18:00:00,
2013-05-06 14:05:00,74.2,50.8,30.06,SE,135,1.8,3.4,44,0.00,,,0.00,WUHU216HW,2013-05-06 18:05:00,
2013-05-06 14:10:00,74.0,48.8,30.06,East,90,1.1,4.7,41,0.00,,,0.00,WUHU216HW,2013-05-06 18:10:00,
2013-05-06 14:15:00,74.0,50.0,30.06,ESE,113,2.0,6.3,43,0.00,,,0.00,WUHU216HW,2013-05-06 18:15:00,
2013-05-06 14:20:00,74.2,50.1,30.05,ESE,113,2.9,6.3,43,0.00,,,0.00,WUHU216HW,2013-05-06 18:20:00,
2013-05-06 14:25:00,74.2,50.8,30.05,ENE,68,2.7,5.1,44,0.00,,,0.00,WUHU216HW,2013-05-06 18:25:00,
2013-05-06 14:30:00,74.5,51.1,30.05,SE,135,0.9,5.1,44,0.00,,,0.00,WUHU216HW,2013-05-06 18:30:00,
2013-05-06 14:35:00,74.5,50.5,30.06,ENE,68,2.9,3.4,43,0.00,,,0.00,WUHU216HW,2013-05-06 18:35:00,
2013-05-06 14:40:00,74.5,51.1,30.05,ESE,113,4.7,5.6,44,0.00,,,0.00,WUHU216HW,2013-05-06 18:40:00,
2013-05-06 14:45:00,74.5,51.1,30.05,ESE,113,6.0,6.0,44,0.00,,,0.00,WUHU216HW,2013-05-06 18:45:00,
2013-05-06 14:50:00,74.5,51.7,30.05,East,90,2.9,6.0,45,0.00,,,0.00,WUHU216HW,2013-05-06 18:50:00,
2013-05-06 14:55:00,74.9,52.0,30.05,SE,135,2.5,4.0,45,0.00,,,0.00,WUHU216HW,2013-05-06 18:55:00,
2013-05-06 15:00:00,74.9,51.4,30.05,WSW,248,4.0,4.0,44,0.00,,,0.00,WUHU216HW,2013-05-06 19:00:00,
2013-05-06 15:05:00,74.9,51.4,30.05,SSE,158,0.4,5.4,44,0.00,,,0.00,WUHU216HW,2013-05-06 19:05:00,
2013-05-06 15:10:00,75.2,50.6,30.05,East,90,5.4,5.4,42,0.00,,,0.00,WUHU216HW,2013-05-06 19:10:00,
2013-05-06 15:15:00,74.9,51.4,30.05,ESE,113,2.7,5.4,44,0.00,,,0.00,WUHU216HW,2013-05-06 19:15:00,
2013-05-06 15:20:00,75.1,51.0,30.04,ESE,113,1.1,4.0,43,0.00,,,0.00,WUHU216HW,2013-05-06 19:20:00,
2013-05-06 15:25:00,75.1,50.4,30.04,SSE,158,2.2,4.7,42,0.00,,,0.00,WUHU216HW,2013-05-06 19:25:00,
2013-05-06 15:30:00,75.1,50.4,30.04,ESE,113,3.4,4.7,42,0.00,,,0.00,WUHU216HW,2013-05-06 19:30:00,
2013-05-06 15:35:00,75.2,51.1,30.04,ESE,113,2.5,3.4,43,0.00,,,0.00,WUHU216HW,2013-05-06 19:35:00,
2013-05-06 15:40:00,75.2,51.8,30.04,ESE,113,2.2,4.0,44,0.00,,,0.00,WUHU216HW,2013-05-06 19:40:00,
2013-05-06 15:45:00,75.2,50.0,30.04,East,90,4.7,4.7,41,0.00,,,0.00,WUHU216HW,2013-05-06 19:45:00,
2013-05-06 15:50:00,75.2,52.4,30.04,ESE,113,2.5,4.7,45,0.00,,,0.00,WUHU216HW,2013-05-06 19:50:00,
2013-05-06 15:55:00,75.1,50.4,30.03,SE,135,2.2,4.5,42,0.00,,,0.00,WUHU216HW,2013-05-06 19:55:00,
2013-05-06 16:00:00,75.1,50.4,30.04,East,90,3.1,4.0,42,0.00,,,0.00,WUHU216HW,2013-05-06 20:00:00,
2013-05-06 16:05:00,74.9,50.9,30.03,SSE,158,1.3,4.5,43,0.00,,,0.00,WUHU216HW,2013-05-06 20:05:00,
2013-05-06 16:10:00,75.1,51.6,30.03,ENE,68,2.9,4.5,44,0.00,,,0.00,WUHU216HW,2013-05-06 20:10:00,
2013-05-06 16:15:00,75.1,50.4,30.03,East,90,2.2,3.8,42,0.00,,,0.00,WUHU216HW,2013-05-06 20:15:00,
2013-05-06 16:20:00,75.2,51.1,30.02,East,90,4.0,4.0,43,0.00,,,0.00,WUHU216HW,2013-05-06 20:20:00,
2013-05-06 16:25:00,75.1,50.4,30.02,ENE,68,4.0,4.0,42,0.00,,,0.00,WUHU216HW,2013-05-06 20:25:00,
2013-05-06 16:30:00,75.1,50.4,30.02,ENE,68,3.1,4.0,42,0.00,,,0.00,WUHU216HW,2013-05-06 20:30:00,
2013-05-06 16:35:00,74.9,50.2,30.02,ENE,68,4.0,4.0,42,0.00,,,0.00,WUHU216HW,2013-05-06 20:35:00,
2013-05-06 16:40:00,74.9,49.6,30.02,ESE,113,1.8,4.3,41,0.00,,,0.00,WUHU216HW,2013-05-06 20:40:00,
2013-05-06 16:45:00,75.1,50.4,30.02,ENE,68,1.6,4.3,42,0.00,,,0.00,WUHU216HW,2013-05-06 20:45:00,
2013-05-06 16:50:00,74.9,49.6,30.02,ESE,113,3.6,4.3,41,0.00,,,0.00,WUHU216HW,2013-05-06 20:50:00,
2013-05-06 16:55:00,74.9,51.4,30.02,ENE,68,3.1,4.3,44,0.00,,,0.00,WUHU216HW,2013-05-06 20:55:00,
2013-05-06 17:00:00,74.7,50.7,30.02,East,90,1.1,3.8,43,0.00,,,0.00,WUHU216HW,2013-05-06 21:00:00,
2013-05-06 17:05:00,74.7,50.7,30.02,ESE,113,2.5,3.4,43,0.00,,,0.00,WUHU216HW,2013-05-06 21:05:00,
2013-05-06 17:10:00,74.5,51.1,30.01,ENE,68,2.9,3.4,44,0.00,,,0.00,WUHU216HW,2013-05-06 21:10:00,
2013-05-06 17:15:00,74.5,50.5,30.02,East,90,1.8,4.5,43,0.00,,,0.00,WUHU216HW,2013-05-06 21:15:00,
2013-05-06 17:20:00,74.3,50.3,30.01,NE,45,3.4,4.5,43,0.00,,,0.00,WUHU216HW,2013-05-06 21:20:00,
2013-05-06 17:25:00,74.3,51.0,30.02,WNW,293,0.4,3.4,44,0.00,,,0.00,WUHU216HW,2013-05-06 21:25:00,
2013-05-06 17:30:00,74.2,50.8,30.02,ESE,113,4.7,4.7,44,0.00,,,0.00,WUHU216HW,2013-05-06 21:30:00,
2013-05-06 17:35:00,74.3,50.3,30.02,SE,135,2.5,5.4,43,0.00,,,0.00,WUHU216HW,2013-05-06 21:35:00,
2013-05-06 17:40:00,74.3,52.1,30.02,ESE,113,1.8,5.4,46,0.00,,,0.00,WUHU216HW,2013-05-06 21:40:00,
2013-05-06 17:45:00,73.8,50.4,30.02,ESE,113,2.5,4.3,44,0.00,,,0.00,WUHU216HW,2013-05-06 21:45:00,
2013-05-06 17:50:00,73.4,50.0,30.02,ESE,113,3.4,4.9,44,0.00,,,0.00,WUHU216HW,2013-05-06 21:50:00,
2013-05-06 17:55:00,73.3,50.0,30.02,SSE,158,1.8,4.9,44,0.00,,,0.00,WUHU216HW,2013-05-06 21:55:00,
2013-05-06 18:00:00,73.1,50.3,30.02,SSE,158,2.5,4.5,45,0.00,,,0.00,WUHU216HW,2013-05-06 22:00:00,
2013-05-06 18:05:00,73.1,50.3,30.02,ESE,113,1.8,4.3,45,0.00,,,0.00,WUHU216HW,2013-05-06 22:05:00,
2013-05-06 18:10:00,72.9,50.2,30.02,ESE,113,1.6,4.3,45,0.00,,,0.00,WUHU216HW,2013-05-06 22:10:00,
2013-05-06 18:15:00,72.7,49.4,30.02,ESE,113,2.0,5.6,44,0.00,,,0.00,WUHU216HW,2013-05-06 22:15:00,
2013-05-06 18:20:00,72.5,48.1,30.02,SSE,158,2.0,5.6,42,0.00,,,0.00,WUHU216HW,2013-05-06 22:20:00,
2013-05-06 18:25:00,72.2,47.8,30.02,ESE,113,2.5,4.0,42,0.00,,,0.00,WUHU216HW,2013-05-06 22:25:00,
2013-05-06 18:30:00,72.0,47.6,30.02,SSE,158,1.3,4.0,42,0.00,,,0.00,WUHU216HW,2013-05-06 22:30:00,
2013-05-06 18:35:00,71.8,47.4,30.02,ESE,113,2.7,3.8,42,0.00,,,0.00,WUHU216HW,2013-05-06 22:35:00,
2013-05-06 18:40:00,71.6,46.7,30.02,ESE,113,4.0,4.0,41,0.00,,,0.00,WUHU216HW,2013-05-06 22:40:00,
2013-05-06 18:45:00,71.6,47.3,30.03,East,90,1.1,4.0,42,0.00,,,0.00,WUHU216HW,2013-05-06 22:45:00,
2013-05-06 18:50:00,71.5,47.7,30.02,ESE,113,2.2,4.0,43,0.00,,,0.00,WUHU216HW,2013-05-06 22:50:00,
2013-05-06 18:55:00,71.3,47.0,30.03,East,90,2.5,4.0,42,0.00,,,0.00,WUHU216HW,2013-05-06 22:55:00,
2013-05-06 19:00:00,71.1,46.8,30.03,ESE,113,0.9,3.8,42,0.00,,,0.00,WUHU216HW,2013-05-06 23:00:00,
2013-05-06 19:05:00,70.9,46.6,30.03,SE,135,2.2,4.0,42,0.00,,,0.00,WUHU216HW,2013-05-06 23:05:00,
2013-05-06 19:10:00,70.9,47.8,30.03,SE,135,0.4,4.0,44,0.00,,,0.00,WUHU216HW,2013-05-06 23:10:00,
2013-05-06 19:15:00,70.7,47.6,30.03,NE,45,3.8,3.8,44,0.00,,,0.00,WUHU216HW,2013-05-06 23:15:00,
2013-05-06 19:20:00,70.7,47.6,30.03,ESE,113,1.1,3.8,44,0.00,,,0.00,WUHU216HW,2013-05-06 23:20:00,
2013-05-06 19:25:00,70.6,48.1,30.03,ESE,113,0.7,3.1,45,0.00,,,0.00,WUHU216HW,2013-05-06 23:25:00,
2013-05-06 19:30:00,70.4,47.4,30.03,SE,135,1.6,2.5,44,0.00,,,0.00,WUHU216HW,2013-05-06 23:30:00,
2013-05-06 19:35:00,70.2,47.8,30.03,SE,135,1.8,2.5,45,0.00,,,0.00,WUHU216HW,2013-05-06 23:35:00,
2013-05-06 19:40:00,70.0,47.6,30.03,SE,135,1.1,2.5,45,0.00,,,0.00,WUHU216HW,2013-05-06 23:40:00,
2013-05-06 19:45:00,69.8,48.1,30.03,ESE,113,0.7,1.1,46,0.00,,,0.00,WUHU216HW,2013-05-06 23:45:00,
2013-05-06 19:50:00,69.5,47.7,30.03,SE,135,0.4,1.1,46,0.00,,,0.00,WUHU216HW,2013-05-06 23:50:00,
2013-05-06 19:55:00,69.1,47.3,30.03,ESE,113,0.4,1.1,46,0.00,,,0.00,WUHU216HW,2013-05-06 23:55:00,
2013-05-06 20:00:00,69.1,48.0,30.04,SE,135,0.7,1.1,47,0.00,,,0.00,WUHU216HW,2013-05-07 00:00:00,
2013-05-06 20:05:00,68.8,47.6,30.04,ESE,113,0.0,1.1,47,0.00,,,0.00,WUHU216HW,2013-05-07 00:05:00,
2013-05-06 20:10:00,68.8,47.1,30.04,ESE,113,0.0,1.1,46,0.00,,,0.00,WUHU216HW,2013-05-07 00:10:00,
2013-05-06 20:15:00,68.6,46.9,30.04,ESE,113,0.0,0.4,46,0.00,,,0.00,WUHU216HW,2013-05-07 00:15:00,
2013-05-06 20:20:00,68.4,46.7,30.04,ESE,113,0.0,0.4,46,0.00,,,0.00,WUHU216HW,2013-05-07 00:20:00,
2013-05-06 20:25:00,68.2,47.2,30.04,ESE,113,0.0,0.0,47,0.00,,,0.00,WUHU216HW,2013-05-07 00:25:00,
2013-05-06 20:30:00,67.9,46.8,30.04,ESE,113,0.0,0.0,47,0.00,,,0.00,WUHU216HW,2013-05-07 00:30:00,
2013-05-06 20:35:00,67.7,46.7,30.04,ESE,113,0.0,0.0,47,0.00,,,0.00,WUHU216HW,2013-05-07 00:35:00,
2013-05-06 20:40:00,67.3,47.0,30.04,ESE,113,0.0,0.0,48,0.00,,,0.00,WUHU216HW,2013-05-07 00:40:00,
2013-05-06 20:45:00,67.0,46.6,30.04,ESE,113,0.0,0.0,48,0.00,,,0.00,WUHU216HW,2013-05-07 00:45:00,
2013-05-06 20:50:00,66.6,46.9,30.04,ESE,113,0.0,0.0,49,0.00,,,0.00,WUHU216HW,2013-05-07 00:50:00,
2013-05-06 20:55:00,66.2,46.5,30.04,ESE,113,0.0,0.0,49,0.00,,,0.00,WUHU216HW,2013-05-07 00:55:00,
2013-05-06 21:00:00,65.9,46.2,30.04,ESE,113,0.0,0.0,49,0.00,,,0.00,WUHU216HW,2013-05-07 01:00:00,
2013-05-06 21:05:00,65.5,46.4,30.04,ESE,113,0.0,0.0,50,0.00,,,0.00,WUHU216HW,2013-05-07 01:05:00,
2013-05-06 21:10:00,65.2,46.1,30.04,ESE,113,0.0,0.0,50,0.00,,,0.00,WUHU216HW,2013-05-07 01:10:00,
2013-05-06 21:15:00,64.8,46.2,30.04,ESE,113,0.0,0.0,51,0.00,,,0.00,WUHU216HW,2013-05-07 01:15:00,
2013-05-06 21:20:00,64.6,46.0,30.05,ESE,113,0.0,0.0,51,0.00,,,0.00,WUHU216HW,2013-05-07 01:20:00,
2013-05-06 21:25:00,64.3,46.2,30.05,ESE,113,0.0,0.0,52,0.00,,,0.00,WUHU216HW,2013-05-07 01:25:00,
2013-05-06 21:30:00,64.1,46.0,30.05,ESE,113,0.0,0.0,52,0.00,,,0.00,WUHU216HW,2013-05-07 01:30:00,
2013-05-06 21:35:00,64.1,46.5,30.05,ESE,113,0.0,0.0,53,0.00,,,0.00,WUHU216HW,2013-05-07 01:35:00,
2013-05-06 21:40:00,63.9,46.8,30.06,ESE,113,0.0,0.0,54,0.00,,,0.00,WUHU216HW,2013-05-07 01:40:00,
2013-05-06 21:45:00,63.7,46.6,30.06,ESE,113,0.0,0.0,54,0.00,,,0.00,WUHU216HW,2013-05-07 01:45:00,
2013-05-06 21:50:00,63.7,47.2,30.06,ESE,113,0.0,0.0,55,0.00,,,0.00,WUHU216HW,2013-05-07 01:50:00,
2013-05-06 21:55:00,63.4,46.8,30.06,ESE,113,0.0,0.0,55,0.00,,,0.00,WUHU216HW,2013-05-07 01:55:00,
2013-05-06 22:00:00,63.4,46.8,30.06,ESE,113,0.0,0.0,55,0.00,,,0.00,WUHU216HW,2013-05-07 02:00:00,
2013-05-06 22:05:00,63.4,46.8,30.06,ESE,113,0.0,0.0,55,0.00,,,0.00,WUHU216HW,2013-05-07 02:05:00,
2013-05-06 22:10:00,63.2,47.2,30.06,ESE,113,0.0,0.0,56,0.00,,,0.00,WUHU216HW,2013-05-07 02:10:00,
2013-05-06 22:15:00,63.0,47.0,30.06,ESE,113,0.0,0.0,56,0.00,,,0.00,WUHU216HW,2013-05-07 02:15:00,
2013-05-06 22:20:00,62.8,46.8,30.06,ESE,113,0.0,0.0,56,0.00,,,0.00,WUHU216HW,2013-05-07 02:20:00,
2013-05-06 22:25:00,62.5,47.0,30.06,ESE,113,0.0,0.0,57,0.00,,,0.00,WUHU216HW,2013-05-07 02:25:00,
2013-05-06 22:30:00,62.1,46.6,30.06,ESE,113,0.0,0.0,57,0.00,,,0.00,WUHU216HW,2013-05-07 02:30:00,
2013-05-06 22:35:00,61.7,46.4,30.06,ESE,113,0.0,0.0,57,0.00,,,0.00,WUHU216HW,2013-05-07 02:35:00,
2013-05-06 22:40:00,61.2,46.8,30.06,ENE,68,0.0,1.1,59,0.00,,,0.00,WUHU216HW,2013-05-07 02:40:00,
2013-05-06 22:45:00,60.8,46.5,30.07,ENE,68,0.0,1.1,59,0.00,,,0.00,WUHU216HW,2013-05-07 02:45:00,
2013-05-06 22:50:00,60.8,46.5,30.06,ENE,68,0.0,0.0,59,0.00,,,0.00,WUHU216HW,2013-05-07 02:50:00,
2013-05-06 22:54:00,60.5,46.2,30.06,ENE,68,0.0,0.0,59,0.00,,,0.00,WUHU216HW,2013-05-07 02:54:00,
2013-05-06 23:00:00,60.3,46.4,30.07,ENE,68,0.0,0.0,60,0.00,,,0.00,WUHU216HW,2013-05-07 03:00:00,
2013-05-06 23:04:00,60.1,46.3,30.07,ENE,68,0.0,0.0,60,0.00,,,0.00,WUHU216HW,2013-05-07 03:04:00,
2013-05-06 23:10:00,59.9,46.1,30.07,ENE,68,0.0,0.0,60,0.00,,,0.00,WUHU216HW,2013-05-07 03:10:00,
2013-05-06 23:15:00,59.6,45.7,30.06,ENE,68,0.0,0.0,60,0.00,,,0.00,WUHU216HW,2013-05-07 03:15:00,
2013-05-06 23:20:00,59.4,46.0,30.07,ENE,68,0.0,0.0,61,0.00,,,0.00,WUHU216HW,2013-05-07 03:20:00,
2013-05-06 23:25:00,59.0,45.2,30.07,ENE,68,0.0,0.0,60,0.00,,,0.00,WUHU216HW,2013-05-07 03:25:00,
2013-05-06 23:30:00,58.7,44.8,30.07,ENE,68,0.0,0.0,60,0.00,,,0.00,WUHU216HW,2013-05-07 03:30:00,
2013-05-06 23:35:00,58.5,45.1,30.07,ENE,68,0.0,0.0,61,0.00,,,0.00,WUHU216HW,2013-05-07 03:35:00,
2013-05-06 23:40:00,58.3,44.9,30.07,ENE,68,0.0,0.0,61,0.00,,,0.00,WUHU216HW,2013-05-07 03:40:00,
2013-05-06 23:45:00,58.0,44.7,30.07,ENE,68,0.0,0.0,61,0.00,,,0.00,WUHU216HW,2013-05-07 03:45:00,
2013-05-06 23:50:00,58.0,44.7,30.07,ENE,68,0.0,0.0,61,0.00,,,0.00,WUHU216HW,2013-05-07 03:50:00,
2013-05-06 23:55:00,57.8,44.5,30.07,ENE,68,0.0,0.0,61,0.00,,,0.00,WUHU216HW,2013-05-07 03:55:00,